Wind_Speed
19 29 46 44 45 41 17 24 21 26 22 17 30 42 45 42 45 47 47 47 47 50 52 54 53 50 43 30 26 26 28 29 28 28 27 29 30 30 26 20 23 24 22 21
13 32 35 34 32 37 37 24 19 17 21 21 31 42 45 45 47 49 49 48 47 45 41 39 38 35 30 27 25 21 21 25 26 26 27 27 25 28 23 24 26 25 22 21
20 22 18 25 27 22 27 31 30 26 18 22 25 42 48 49 50 50 50 48 46 42 39 33 30 28 27 28 25 25 23 22 23 25 26 23 26 26 24 26 24 22 20 19
26 23 22 18 19 31 30 21 14 9 15 25 21 17 40 45 50 47 46 43 43 43 39 33 29 26 27 27 25 24 26 24 23 24 25 20 22 24 26 26 26 20 17 21
33 32 13 19 21 15 29 28 29 20 13 20 28 17 54 30 42 45 42 40 38 31 32 32 30 30 31 25 20 18 24 23 22 23 21 18 23 25 25 23 17 17 19 25
33 33 29 17 12 16 14 13 17 18 20 14 26 20 53 46 51 44 35 22 23 25 20 15 15 14 20 25 20 19 20 20 21 22 19 19 20 20 19 18 18 17 18 18
14 21 27 32 20 14 14 12 4 3 5 9 20 20 49 2 7 1 7 11 2 3 12 17 19 18 17 23 21 21 22 21 18 17 17 18 17 18 17 16 14 14 16 17
11 7 18 23 25 18 17 20 7 6 5 4 21 20 26 22 28 23 14 13 12 5 10 13 13 15 19 24 22 19 18 19 16 16 16 16 17 15 14 14 15 17 16 16
10 2 7 9 17 19 18 22 28 7 6 3 11 31 43 18 16 16 16 9 11 13 11 16 19 19 19 18 18 16 15 17 16 14 16 16 13 12 13 15 15 15 14 13
4 8 4 2 8 13 10 14 16 11 4 5 8 17 17 2 17 22 20 19 11 12 10 19 16 12 11 14 14 12 13 13 13 14 15 13 13 15 14 12 14 13 11 10
7 8 8 8 8 11 10 17 11 17 19 3 3 5 1 1 11 14 11 11 17 13 13 15 13 13 13 13 14 11 10 11 12 13 13 13 14 12 11 13 11 9 9 7
7 7 9 16 16 15 13 15 15 17 10 24 14 12 6 9 6 2 6 8 10 10 14 15 12 13 12 13 13 11 9 10 12 13 12 12 10 10 11 10 9 8 7 4
11 4 7 4 2 2 10 17 20 21 18 18 6 13 17 5 9 3 11 13 8 11 19 14 13 11 10 13 12 11 10 11 12 11 10 9 10 9 9 9 8 6 5 6
17 13 12 9 9 11 17 15 15 14 17 26 35 27 37 27 23 9 14 16 15 16 17 14 13 9 10 13 13 12 11 10 10 10 8 10 8 8 9 9 8 6 6 6
17 19 17 19 20 22 20 23 25 27 28 22 23 28 41 46 42 38 26 17 13 12 18 18 12 10 11 14 15 12 10 10 10 9 9 8 8 9 9 9 7 6 7 7
14 14 13 24 26 24 24 24 30 33 38 40 33 36 34 38 34 32 25 16 10 7 20 17 13 11 14 15 12 10 10 10 9 8 8 8 8 9 8 7 5 6 8 6
21 19 15 16 14 18 20 26 28 39 41 42 39 30 30 34 34 35 19 12 10 9 21 19 13 14 15 12 9 9 10 9 8 7 8 9 8 6 5 5 6 8 8 6
27 23 17 14 14 5 13 15 19 30 39 41 39 26 27 25 25 27 29 15 8 14 20 19 14 18 17 13 11 11 10 9 7 7 10 8 5 3 2 4 5 8 8 6
13 22 10 7 8 22 27 15 13 10 16 31 24 26 24 21 20 24 22 14 6 15 19 15 15 17 16 13 10 10 9 8 7 8 11 8 5 4 5 6 7 8 9 7
13 17 22 11 6 5 9 21 5 9 13 17 21 27 22 19 23 15 18 13 3 15 20 17 20 18 14 12 12 9 8 8 9 12 10 8 6 6 7 7 7 7 7 7
7 10 29 26 12 12 18 19 5 9 6 18 22 25 22 26 16 16 17 14 7 18 19 22 17 14 11 13 12 9 9 10 14 12 10 9 6 7 7 6 6 5 5 5
10 12 4 11 7 6 13 3 5 6 12 14 19 20 25 24 17 21 17 11 10 24 25 23 17 15 14 14 12 10 11 12 15 12 12 11 9 8 8 6 4 3 5 7
11 16 14 9 8 20 13 10 5 3 16 19 21 21 19 22 22 23 19 15 19 28 27 23 19 15 15 15 12 11 13 13 15 16 13 12 10 9 7 6 7 6 4 8
21 19 17 20 19 28 15 12 6 6 10 19 19 19 24 27 24 19 16 17 32 30 28 25 20 16 13 15 14 12 11 14 15 16 15 12 10 8 6 4 3 5 7 7
21 22 22 22 28 26 27 19 20 10 14 16 17 20 19 19 18 19 20 23 30 36 28 23 20 17 13 13 13 12 12 12 16 17 14 12 9 7 5 3 2 2 3 3
19 20 25 25 26 19 22 23 19 13 19 35 28 20 16 19 15 20 22 29 46 29 29 24 24 21 16 12 11 12 11 11 15 15 13 11 8 6 4 2 1 2 1 2
Wind_Direction
227 223 224 228 229 227 237 233 235 237 231 231 242 259 262 264 259 259 258 260 261 259 258 260 264 265 266 257 263 270 269 268 273 275 266 269 263 267 267 273 270 273 270 274
249 236 237 238 239 236 231 243 230 233 228 239 247 253 255 257 259 260 262 261 265 268 268 267 264 259 254 247 256 270 273 267 271 267 266 268 262 263 268 265 267 276 272 267
259 245 247 246 242 237 243 246 254 261 237 233 266 265 257 256 259 260 260 262 264 264 264 268 263 254 242 245 252 263 266 263 265 261 266 271 263 258 269 275 275 271 265 269
262 259 257 251 249 238 246 240 240 254 261 260 256 288 271 257 255 255 258 262 262 266 268 265 264 259 248 250 260 268 258 261 259 261 264 276 258 262 270 268 266 268 283 275
251 248 254 260 255 242 249 252 246 249 256 267 254 285 271 275 265 260 261 265 269 273 269 264 264 259 249 246 252 269 254 257 256 257 260 266 260 262 265 267 276 278 265 260
258 251 241 243 236 240 245 219 230 237 241 254 250 223 274 265 261 269 274 281 268 255 256 232 236 246 237 238 242 254 253 256 247 254 257 262 260 262 266 270 267 259 251 258
265 242 235 228 246 227 218 215 164 172 186 232 229 206 240 58 175 334 248 210 166 298 239 240 239 244 235 229 242 252 254 242 238 250 252 262 260 264 262 262 253 255 265 268
289 193 215 220 234 234 220 213 205 177 183 219 220 226 242 259 254 259 237 268 290 288 230 229 226 234 238 240 241 239 249 223 233 247 259 261 261 256 259 253 260 264 264 269
342 14 203 190 216 224 226 214 215 258 272 244 207 246 253 246 256 260 265 286 267 260 245 222 221 233 235 234 231 233 224 231 235 243 255 256 247 251 245 261 261 260 264 266
296 296 312 323 218 179 216 212 198 196 206 247 249 251 246 244 221 253 273 289 261 236 229 216 225 230 215 198 203 204 211 209 224 240 245 241 244 251 254 252 253 258 261 271
274 261 271 253 211 196 225 240 224 223 231 211 304 267 151 212 239 258 268 272 284 233 217 209 212 202 189 198 193 199 204 217 238 231 237 247 253 249 251 251 253 258 264 266
309 290 270 271 282 256 219 230 234 236 238 242 266 274 135 312 279 294 227 316 282 204 206 199 197 193 195 192 193 206 221 224 220 236 251 251 248 252 248 248 249 254 250 232
311 289 310 303 68 47 217 228 232 238 248 257 237 230 244 204 237 31 6 341 11 176 172 192 197 199 207 200 207 213 211 219 237 246 243 245 252 242 239 242 249 251 231 204
288 269 252 242 289 299 291 254 236 243 251 250 248 258 249 256 273 285 352 348 9 169 167 189 201 210 200 194 202 199 213 231 243 238 241 252 237 229 237 237 247 237 203 206
258 254 264 268 279 283 277 279 247 239 242 247 254 255 259 256 271 280 298 338 354 191 181 188 200 215 198 189 190 202 221 233 232 235 249 236 219 228 233 239 235 209 191 212
263 263 269 283 288 284 279 278 252 246 240 244 249 258 257 262 271 279 288 320 317 209 191 194 200 199 193 191 199 214 224 225 228 239 228 220 219 223 234 231 212 178 190 187
262 262 277 277 290 283 278 272 257 249 242 239 241 250 265 268 272 273 275 312 307 214 202 202 202 190 191 201 204 219 219 220 230 218 212 197 204 215 210 207 189 170 171 190
238 244 246 271 287 246 258 291 273 258 246 236 238 245 257 264 268 275 265 291 293 210 197 212 205 188 183 194 206 213 205 218 205 202 172 167 146 145 159 179 162 159 160 185
236 220 229 239 224 275 290 276 254 242 234 231 232 231 247 246 253 263 258 277 320 201 186 207 206 183 184 193 205 197 210 196 185 168 152 140 118 128 144 162 160 156 152 170
237 233 219 222 244 258 271 303 258 231 254 225 218 229 235 228 238 248 248 272 272 187 178 200 185 179 181 188 185 191 193 178 167 157 147 131 112 131 134 138 138 156 156 160
336 246 229 236 240 266 283 287 259 185 224 211 218 223 226 222 225 229 235 257 241 184 181 180 177 174 176 180 172 181 171 169 163 156 146 140 136 128 122 127 138 161 174 170
339 337 280 242 245 259 306 334 200 200 227 228 224 212 218 212 202 220 219 228 228 177 178 173 162 167 168 163 165 169 166 170 163 156 142 143 143 127 114 101 106 169 204 204
356 342 330 332 329 352 2 1 57 147 211 225 212 205 213 201 202 213 222 230 207 178 174 164 156 150 158 154 156 166 168 166 170 158 146 145 140 133 120 104 80 82 153 192
338 346 345 356 341 352 347 11 28 87 204 218 198 202 203 191 192 196 213 202 172 173 168 168 159 156 156 157 156 159 161 170 176 160 151 147 142 136 133 135 98 95 106 133
350 351 349 349 359 352 3 15 28 150 215 198 175 185 182 181 167 181 185 185 179 173 170 167 163 159 160 167 166 158 159 174 180 167 160 155 153 147 156 181 225 72 77 166
357 352 349 343 348 349 359 14 47 118 103 189 135 152 177 184 188 169 185 192 185 183 171 173 171 163 165 175 175 167 156 170 181 174 167 158 150 137 122 108 197 105 34 155
Height
3032 3032 3024 3030 3035 3041 3041 3041 3043 3048 3054 3058 3055 3050 3055 3060 3060 3059 3060 3061 3062 3062 3067 3071 3074 3076 3079 3082 3083 3084 3084 3084 3085 3086 3087 3087 3088 3090 3091 3091 3090 3089 3088 3088
3029 3022 3027 3030 3032 3034 3036 3038 3039 3044 3048 3050 3050 3042 3044 3047 3047 3049 3051 3052 3053 3055 3058 3062 3063 3067 3070 3073 3075 3077 3077 3077 3078 3079 3080 3081 3082 3084 3085 3084 3084 3084 3083 3081
3023 3022 3024 3026 3028 3030 3031 3033 3037 3041 3043 3043 3044 3032 3035 3037 3037 3040 3040 3043 3044 3046 3049 3053 3056 3058 3061 3064 3067 3068 3069 3070 3071 3072 3073 3074 3075 3077 3078 3078 3078 3077 3076 3075
3017 3018 3019 3021 3020 3025 3025 3030 3034 3037 3041 3039 3045 3027 3023 3026 3024 3028 3032 3036 3037 3039 3042 3045 3047 3050 3053 3057 3059 3060 3062 3063 3065 3065 3067 3067 3069 3071 3072 3071 3070 3070 3071 3070
3011 3012 3014 3015 3016 3019 3020 3027 3031 3035 3037 3038 3037 3040 3003 3018 3013 3018 3025 3027 3031 3033 3034 3036 3039 3041 3044 3047 3051 3052 3054 3057 3058 3060 3061 3062 3063 3065 3065 3064 3065 3066 3066 3065
3001 3006 3009 3011 3013 3016 3020 3023 3027 3031 3034 3032 3029 3039 2996 3007 3006 3015 3017 3020 3021 3024 3027 3028 3030 3032 3036 3041 3044 3046 3049 3050 3052 3054 3056 3057 3059 3059 3059 3059 3061 3061 3060 3060
2996 2996 3000 3006 3009 3011 3015 3018 3022 3029 3029 3021 3019 3030 2993 2995 3002 3008 3010 3014 3017 3019 3020 3023 3026 3028 3030 3034 3037 3040 3042 3044 3047 3050 3051 3053 3053 3053 3054 3054 3054 3054 3055 3055
2992 2992 2995 2999 3004 3006 3009 3012 3012 3015 3017 3015 3021 3008 2989 2995 3000 3004 3008 3010 3013 3016 3017 3018 3020 3023 3026 3029 3032 3035 3037 3040 3043 3045 3047 3048 3048 3049 3049 3050 3050 3050 3051 3051
2996 2994 2993 2995 3000 3003 3005 3005 3010 3012 3009 3009 3002 2993 2992 2994 2999 3003 3006 3009 3009 3010 3011 3014 3016 3019 3021 3023 3027 3030 3033 3036 3039 3042 3043 3044 3044 3045 3046 3046 3046 3047 3048 3047
3000 2998 2995 2995 2998 2998 3001 3004 3007 3008 3008 3004 2992 2990 2989 2992 2995 3001 3003 3002 3003 3005 3007 3010 3013 3016 3017 3020 3024 3027 3031 3033 3036 3039 3039 3040 3041 3042 3043 3043 3044 3044 3044 3044
3001 3000 2996 2996 2996 2996 2998 2998 3001 3002 3000 2996 2993 2986 2982 2989 2993 2994 2997 2999 2999 3000 3003 3007 3010 3012 3015 3018 3022 3025 3029 3032 3034 3035 3036 3038 3038 3039 3040 3040 3041 3041 3042 3043
3000 2998 2995 2993 2993 2992 2994 2996 2998 2997 2995 2993 2994 2987 2981 2983 2986 2989 2993 2995 2995 2997 3000 3005 3008 3011 3014 3017 3020 3024 3026 3029 3031 3033 3033 3034 3035 3036 3036 3037 3037 3039 3040 3041
3001 2998 2996 2992 2991 2988 2989 2991 2993 2993 2993 2988 2991 2977 2981 2981 2982 2986 2988 2992 2991 2992 2996 3002 3006 3009 3012 3015 3018 3021 3024 3026 3029 3029 3030 3031 3032 3033 3033 3034 3035 3037 3038 3039
2999 2995 2995 2995 2992 2990 2988 2987 2988 2988 2987 2984 2976 2982 2979 2979 2980 2983 2986 2988 2988 2990 2995 3000 3005 3007 3010 3012 3016 3019 3022 3024 3026 3027 3027 3029 3029 3030 3031 3033 3034 3036 3037 3038
2994 2990 2991 2989 2988 2986 2983 2981 2981 2981 2980 2979 2978 2979 2980 2977 2980 2983 2985 2988 2988 2990 2995 2999 3003 3006 3008 3011 3015 3017 3020 3022 3023 3025 3025 3027 3028 3030 3031 3032 3033 3035 3036 3037
2988 2985 2984 2982 2982 2979 2975 2972 2970 2970 2970 2968 2972 2972 2978 2978 2981 2982 2986 2986 2988 2989 2994 2998 3002 3004 3008 3011 3014 3017 3019 3020 3022 3023 3024 3026 3028 3029 3030 3031 3032 3034 3036 3036
2982 2982 2982 2977 2977 2974 2967 2962 2961 2958 2959 2963 2965 2972 2977 2976 2978 2980 2983 2983 2985 2987 2992 2997 3001 3003 3007 3011 3013 3016 3017 3019 3021 3022 3024 3026 3027 3028 3028 3030 3032 3034 3035 3037
2974 2977 2979 2974 2974 2969 2955 2955 2951 2947 2951 2957 2962 2970 2972 2973 2976 2978 2979 2981 2983 2984 2989 2996 2999 3003 3005 3009 3012 3014 3016 3018 3020 3022 3024 3026 3027 3028 3029 3030 3033 3034 3036 3037
2969 2972 2974 2972 2967 2958 2951 2946 2947 2944 2947 2951 2956 2963 2966 2969 2972 2973 2976 2979 2980 2983 2988 2995 3000 3003 3005 3009 3011 3013 3016 3018 3020 3022 3024 3026 3027 3028 3029 3031 3033 3034 3036 3037
2965 2965 2967 2966 2965 2956 2947 2942 2945 2944 2945 2948 2953 2955 2962 2964 2966 2970 2974 2976 2978 2983 2988 2994 2998 3001 3005 3008 3011 3014 3016 3018 3021 3023 3025 3027 3028 3029 3030 3032 3033 3035 3036 3038
2963 2961 2960 2959 2957 2951 2946 2943 2941 2945 2949 2946 2947 2950 2955 2957 2965 2968 2972 2974 2977 2983 2989 2993 2998 3002 3005 3008 3011 3014 3017 3019 3021 3023 3026 3027 3029 3030 3031 3032 3034 3035 3037 3039
2966 2962 2958 2954 2954 2950 2944 2940 2940 2941 2941 2941 2942 2947 2949 2954 2959 2964 2969 2972 2976 2982 2988 2993 2997 3001 3005 3008 3011 3014 3017 3019 3021 3024 3026 3028 3030 3031 3032 3033 3033 3035 3036 3038
2967 2965 2960 2957 2952 2946 2943 2939 2937 2936 2938 2939 2940 2944 2946 2950 2956 2961 2965 2970 2976 2983 2989 2994 2997 3001 3005 3008 3012 3015 3017 3019 3022 3024 3026 3029 3030 3032 3033 3034 3034 3034 3034 3036
2968 2963 2959 2955 2951 2944 2940 2937 2936 2935 2935 2937 2940 2942 2944 2949 2955 2960 2963 2967 2974 2982 2988 2993 2998 3002 3006 3009 3012 3015 3017 3019 3023 3024 3027 3030 3032 3033 3035 3035 3036 3035 3035 3036
2968 2963 2959 2954 2949 2944 2940 2936 2933 2931 2932 2934 2939 2942 2944 2947 2954 2959 2964 2968 2975 2981 2988 2992 2998 3003 3007 3010 3012 3015 3017 3020 3023 3025 3028 3030 3033 3034 3036 3036 3037 3037 3037 3037
2968 2964 2959 2956 2952 2949 2944 2938 2933 2932 2932 2935 2937 2943 2946 2949 2953 2959 2962 2965 2974 2980 2984 2991 2998 3002 3008 3011 3014 3016 3017 3021 3023 3025 3028 3031 3034 3035 3037 3037 3037 3038 3038 3038